Weather History for KF44 - August, 2013

Change the Weather History Date:

Saturday, August 17, 2013

  Actual Average (KTYR) Record (KTYR)
Temperature  
Mean Temperature 74 °F 84 °F  
Max Temperature 87 °F 93 °F 105 °F (1956)
Min Temperature 62 °F 74 °F 56 °F (1992)
Degree Days  
Heating Degree Days 0 0  
Month to date heating degree days 0  
Since 1 June heating degree days 0  
Since 1 July heating degree days 0  
Cooling Degree Days 10 19  
Month to date cooling degree days 323  
Year to date cooling degree days 1681  
Since 1 June cooling degree days 1312  
Growing Degree Days 24 (Base 50)    
Moisture  
Dew Point 58 °F    
Average Humidity 58    
Maximum Humidity 88    
Minimum Humidity 33    
Precipitation  
Precipitation 0.00 in 0.10 in 2.22 in (1961)
Month to date precipitation 1.40  
Year to date precipitation 27.80  
Snow  
Snow 0.00 in - - ()
Month to date snowfall  
Since 1 June snowfall  
Since 1 July snowfall  
Snow Depth -    
Sea Level Pressure  
Sea Level Pressure 30.03 in    
Wind  
Wind Speed 4 mph (NE)    
Max Wind Speed 13 mph    
Max Gust Speed 22 mph    
Visibility 10 miles    
Events      
T = Trace of Precipitation, MM = Missing Value Source: NWS Daily Summary

Daily Weather History Graph

Daily Weather History Graph

Search for Another Location

Airport or City:

Trip Planner

Search our weather history database for the weather conditions in past years. The results will help you decide how hot, cold, wet, or windy it might be!

Date:

Astronomy

Aug. 17, 2013 Rise Set
Actual Time 6:49 AM CDT 8:04 PM CDT
Civil Twilight 6:23 AM CDT 8:30 PM CDT
Nautical Twilight 5:52 AM CDT 9:01 PM CDT
Astronomical Twilight 5:21 AM CDT 9:32 PM CDT
Moon 5:15 PM CDT (8/17) 2:59 AM CDT (8/17)
Length of Visible Light 14h 07m
Length of Day
13h 15m
Waxing Gibbous, 84% of the Moon is Illuminated
Aug 17
Waxing Gibbous
Aug 20
Full
Aug 28
Last Quarter
Sep 5
New
Sep 12
First Quarter

Hourly Weather History & Observations

Time (CDT) Temp. Heat Index Dew Point Humidity Pressure Visibility Wind Dir Wind Speed Gust Speed Precip Events Conditions
12:15 AM 71.6 °F - 60.8 °F 69% 30.06 in 10.0 mi ENE 4.6 mph - N/A   Clear
12:35 AM 71.6 °F - 60.8 °F 69% 30.06 in 10.0 mi NE 4.6 mph - N/A   Clear
12:55 AM 71.6 °F - 60.8 °F 69% 30.06 in 10.0 mi ENE 4.6 mph - N/A   Clear
1:15 AM 69.8 °F - 59.0 °F 68% 30.06 in 10.0 mi ENE 3.5 mph - N/A   Clear
1:35 AM 69.8 °F - 60.8 °F 73% 30.06 in 10.0 mi Calm Calm - N/A   Clear
1:55 AM 69.8 °F - 59.0 °F 68% 30.05 in 10.0 mi NE 3.5 mph - N/A   Clear
2:15 AM 69.8 °F - 59.0 °F 68% 30.05 in 10.0 mi NE 3.5 mph - N/A   Clear
2:35 AM 68.0 °F - 59.0 °F 73% 30.05 in 10.0 mi NE 4.6 mph - N/A   Clear
2:55 AM 68.0 °F - 59.0 °F 73% 30.05 in 10.0 mi Calm Calm - N/A   Clear
3:15 AM 68.0 °F - 59.0 °F 73% 30.05 in 10.0 mi ENE 4.6 mph - N/A   Clear
3:35 AM 66.2 °F - 59.0 °F 78% 30.06 in 10.0 mi ENE 4.6 mph - N/A   Clear
3:55 AM 66.2 °F - 59.0 °F 78% 30.05 in 10.0 mi NE 4.6 mph - N/A   Clear
4:15 AM 64.4 °F - 59.0 °F 83% 30.05 in 10.0 mi Calm Calm - N/A   Clear
4:35 AM 64.4 °F - 59.0 °F 83% 30.05 in 10.0 mi Calm Calm - N/A   Clear
4:55 AM 64.4 °F - 59.0 °F 83% 30.05 in 10.0 mi Calm Calm - N/A   Clear
5:15 AM 62.6 °F - 59.0 °F 88% 30.05 in 10.0 mi Calm Calm - N/A   Clear
5:35 AM 62.6 °F - 59.0 °F 88% 30.05 in 10.0 mi Calm Calm - N/A   Clear
5:55 AM 62.6 °F - 59.0 °F 88% 30.05 in 10.0 mi Calm Calm - N/A   Clear
6:15 AM 62.6 °F - 59.0 °F 88% 30.05 in 10.0 mi Calm Calm - N/A   Clear
6:35 AM 62.6 °F - 59.0 °F 88% 30.06 in 10.0 mi Calm Calm - N/A   Clear
6:55 AM 62.6 °F - 59.0 °F 88% 30.06 in 10.0 mi Calm Calm - N/A   Clear
7:15 AM 62.6 °F - 59.0 °F 88% 30.06 in 10.0 mi NNE 4.6 mph - N/A   Clear
7:35 AM 62.6 °F - 59.0 °F 88% 30.07 in 10.0 mi NNE 3.5 mph - N/A   Clear
7:55 AM 62.6 °F - 59.0 °F 88% 30.07 in 10.0 mi NNE 3.5 mph - N/A   Clear
8:15 AM 64.4 °F - 59.0 °F 83% 30.07 in 10.0 mi NNE 3.5 mph - N/A   Clear
8:35 AM 68.0 °F - 59.0 °F 73% 30.07 in 10.0 mi NE 3.5 mph - N/A   Clear
8:55 AM 69.8 °F - 59.0 °F 68% 30.07 in 10.0 mi ENE 8.1 mph - N/A   Clear
9:15 AM 69.8 °F - 59.0 °F 68% 30.07 in 10.0 mi NE 8.1 mph - N/A   Clear
9:35 AM 71.6 °F - 59.0 °F 64% 30.07 in 10.0 mi NE 5.8 mph - N/A   Clear
9:55 AM 71.6 °F - 59.0 °F 64% 30.07 in 10.0 mi ENE 8.1 mph - N/A   Clear
10:15 AM 73.4 °F - 59.0 °F 61% 30.07 in 10.0 mi NNE 10.4 mph - N/A   Clear
10:35 AM 75.2 °F - 59.0 °F 57% 30.07 in 10.0 mi NE 5.8 mph - N/A   Clear
10:55 AM 77.0 °F - 57.2 °F 50% 30.08 in 10.0 mi North 8.1 mph - N/A   Clear
11:15 AM 77.0 °F - 57.2 °F 50% 30.08 in 10.0 mi ENE 4.6 mph - N/A   Clear
11:35 AM 78.8 °F - 59.0 °F 51% 30.07 in 10.0 mi East 4.6 mph - N/A   Clear
11:55 AM 78.8 °F - 57.2 °F 47% 30.06 in 10.0 mi NE 6.9 mph - N/A   Clear
12:15 PM 80.6 °F 81.1 °F 59.0 °F 48% 30.06 in 10.0 mi NNE 9.2 mph - N/A   Clear
12:35 PM 80.6 °F 80.8 °F 57.2 °F 45% 30.05 in 10.0 mi NNE 6.9 mph - N/A   Clear
12:55 PM 82.4 °F 82.0 °F 57.2 °F 42% 30.04 in 10.0 mi NNE 11.5 mph - N/A   Clear
1:15 PM 82.4 °F 82.0 °F 57.2 °F 42% 30.03 in 10.0 mi NNE 11.5 mph 20.7 mph N/A   Clear
1:35 PM 82.4 °F 82.0 °F 57.2 °F 42% 30.03 in 10.0 mi NNE 6.9 mph - N/A   Clear
1:55 PM 84.2 °F 83.8 °F 59.0 °F 42% 30.02 in 10.0 mi NNW 6.9 mph 10.4 mph N/A   Clear
2:15 PM 84.2 °F 83.8 °F 59.0 °F 42% 30.01 in 10.0 mi NNW 8.1 mph - N/A   Clear
2:35 PM 84.2 °F 83.8 °F 59.0 °F 42% 30.00 in 10.0 mi North 11.5 mph 16.1 mph N/A   Clear
2:55 PM 86.0 °F 84.9 °F 57.2 °F 37% 30.00 in 10.0 mi NNE 5.8 mph 18.4 mph N/A   Clear
3:15 PM 86.0 °F 84.9 °F 57.2 °F 37% 29.99 in 10.0 mi North 9.2 mph - N/A   Clear
3:35 PM 87.8 °F 86.5 °F 57.2 °F 35% 29.99 in 10.0 mi ENE 9.2 mph 17.3 mph N/A   Clear
3:55 PM 87.8 °F 86.1 °F 55.4 °F 33% 29.98 in 10.0 mi NNE 11.5 mph 18.4 mph N/A   Clear
4:15 PM 87.8 °F 86.1 °F 55.4 °F 33% 29.97 in 10.0 mi NNE 8.1 mph 18.4 mph N/A   Clear
4:35 PM 87.8 °F 86.1 °F 55.4 °F 33% 29.97 in 10.0 mi NNE 12.7 mph 21.9 mph N/A   Clear
4:55 PM 87.8 °F 86.1 °F 55.4 °F 33% 29.96 in 10.0 mi NNE 11.5 mph - N/A   Clear
5:15 PM 87.8 °F 86.1 °F 55.4 °F 33% 29.96 in 10.0 mi NE 6.9 mph - N/A   Clear
5:35 PM 87.8 °F 86.1 °F 55.4 °F 33% 29.96 in 10.0 mi North 9.2 mph 19.6 mph N/A   Clear
5:55 PM 87.8 °F 86.1 °F 55.4 °F 33% 29.96 in 10.0 mi NE 6.9 mph - N/A   Clear
6:15 PM 86.0 °F 84.2 °F 53.6 °F 33% 29.96 in 10.0 mi NNE 8.1 mph - N/A   Clear
6:35 PM 86.0 °F 84.5 °F 55.4 °F 35% 29.96 in 10.0 mi ENE 6.9 mph - N/A   Clear
6:55 PM 86.0 °F 84.5 °F 55.4 °F 35% 29.96 in 10.0 mi East 6.9 mph - N/A   Clear
7:15 PM 86.0 °F 84.5 °F 55.4 °F 35% 29.96 in 10.0 mi NNE 5.8 mph - N/A   Clear
7:35 PM 84.2 °F 83.0 °F 55.4 °F 37% 29.97 in 10.0 mi NE 3.5 mph - N/A   Clear
7:55 PM 82.4 °F 81.7 °F 55.4 °F 39% 29.97 in 10.0 mi ENE 3.5 mph - N/A   Clear
8:15 PM 80.6 °F 80.5 °F 55.4 °F 42% 29.98 in 10.0 mi Calm Calm - N/A   Clear
8:35 PM 80.6 °F 80.5 °F 55.4 °F 42% 29.98 in 10.0 mi Calm Calm - N/A   Clear
8:55 PM 78.8 °F - 55.4 °F 44% 29.98 in 10.0 mi Calm Calm - N/A   Clear
9:15 PM 78.8 °F - 57.2 °F 47% 29.99 in 10.0 mi NE 3.5 mph - N/A   Clear
9:35 PM 77.0 °F - 55.4 °F 47% 30.00 in 10.0 mi ENE 3.5 mph - N/A   Clear
9:55 PM 77.0 °F - 57.2 °F 50% 30.01 in 10.0 mi Calm Calm - N/A   Clear
10:15 PM 77.0 °F - 57.2 °F 50% 30.01 in 10.0 mi NNE 3.5 mph - N/A   Clear
10:35 PM 75.2 °F - 57.2 °F 53% 30.01 in 10.0 mi Calm Calm - N/A   Clear
10:55 PM 73.4 °F - 57.2 °F 57% 30.02 in 10.0 mi Calm Calm - N/A   Clear
11:15 PM 73.4 °F - 57.2 °F 57% 30.02 in 10.0 mi NNE 4.6 mph - N/A   Clear
11:35 PM 73.4 °F - 57.2 °F 57% 30.02 in 10.0 mi Calm Calm - N/A   Clear
11:55 PM 71.6 °F - 57.2 °F 60% 30.03 in 10.0 mi Calm Calm - N/A   Clear